Flag for Denmark Weather past 2 weeks in Copenhagen, Denmark

Now
55 °F

Sprinkles. Scattered clouds.


Feels Like: 52 °F
Forecast: 46 / 53 °F
Wind: 13 mph from South

Location: Koebenhavn-Kastrup Airport

Current Time: May 6, 2015 at 6:34:21 PM

Latest Report: May 6, 2015 at 6:20 PM


Visibility: N/A

Pressure: 29.77 "Hg

Humidity: 82%

Dew point: 50 °F

Location of CopenhagenLocation

Historic Weather in Copenhagen — Graph

°F

Copenhagen temperature yesterday

Maximum temperature yesterday: 59 °F (at 2:20 PM)
Minimum temperature yesterday: 48 °F (at 12:20 AM)
Average temperature yesterday: 54 °F

Past Weeks' High & Low Weather Summary

 TemperatureHumidityPressure
High59 °F (Apr 22, 3:20 PM)100% (Apr 25, 5:20 AM)30.27 "Hg (Apr 25, 5:20 AM)
Low36 °F (May 3, 4:20 AM)30% (May 2, 6:20 PM)29.50 "Hg (May 5, 3:50 PM)
Average49 °F75%29.83 "Hg
* Reported Apr 21 5:20 PM — May 6 5:20 PM, Copenhagen, Weather by CustomWeather, © 2015

Note: Actual official high and low records may vary slightly from our data, if they occured in-between our weather recording intervals... More about our weather records

Advertising

Copenhagen weather history for previous 24 hours

 ConditionsComfort  
Time TempWeatherWind HumidityBarometerVisibility
5:20 PM
Wed, May 6
55 °FPassing clouds.13 mph77%29.80 "HgN/A
4:50 PM59 °FPassing clouds.13 mph68%29.80 "HgN/A
4:20 PM59 °FPassing clouds.15 mph68%29.80 "HgN/A
3:50 PM59 °FPassing clouds.13 mph68%29.80 "HgN/A
3:20 PM59 °FPassing clouds.12 mph68%29.80 "HgN/A
2:50 PM57 °FPassing clouds.14 mph72%29.80 "HgN/A
2:20 PM57 °FPassing clouds.15 mph77%29.80 "HgN/A
1:50 PM59 °FPassing clouds.15 mph72%29.80 "HgN/A
1:20 PM57 °FPassing clouds.16 mph77%29.80 "HgN/A
12:50 PM57 °FPassing clouds.14 mph72%29.80 "HgN/A
12:20 PM59 °FPassing clouds.15 mph68%29.80 "HgN/A
11:50 AM55 °FPassing clouds.16 mph77%29.80 "HgN/A
11:20 AM57 °FPassing clouds.15 mph72%29.80 "HgN/A
10:50 AM57 °FPassing clouds.14 mph72%29.80 "HgN/A
10:20 AM57 °FPassing clouds.14 mph72%29.80 "HgN/A
9:50 AM55 °FSunny.12 mph77%29.80 "Hg10 mi
9:20 AM55 °FSunny.9 mph77%29.80 "Hg10 mi
8:50 AM54 °FSunny.10 mph77%29.80 "Hg10 mi
8:20 AM52 °FSunny.9 mph82%29.80 "Hg10 mi
7:50 AM52 °FSunny.9 mph82%29.80 "Hg10 mi
7:20 AM52 °FSunny.12 mph82%29.77 "Hg10 mi
6:50 AM50 °FSunny.10 mph88%29.77 "Hg10 mi
6:20 AM48 °FPassing clouds.9 mph87%29.77 "HgN/A
5:50 AM46 °FPassing clouds.7 mph93%29.77 "HgN/A
5:20 AM46 °FClear.7 mph93%29.77 "Hg10 mi
4:50 AM45 °FPassing clouds.7 mph93%29.77 "HgN/A
4:20 AM46 °FClear.8 mph93%29.74 "Hg10 mi
3:50 AM48 °FClear.9 mph87%29.74 "Hg10 mi
3:20 AM50 °FClear.13 mph88%29.74 "Hg10 mi
2:50 AM50 °FClear.13 mph88%29.74 "Hg10 mi
2:20 AM50 °FClear.14 mph88%29.74 "Hg10 mi
1:50 AM50 °FClear.13 mph88%29.71 "Hg10 mi
1:20 AM52 °FClear.14 mph82%29.71 "Hg10 mi
12:50 AM52 °FClear.16 mph88%29.68 "Hg10 mi
12:20 AM54 °FClear.21 mph82%29.65 "Hg10 mi
11:50 PM
Tue, May 5
54 °FPassing clouds.21 mph88%29.65 "HgN/A
11:20 PM55 °FPartly cloudy.15 mph94%29.62 "HgN/A
10:50 PM55 °FPassing clouds.14 mph94%29.59 "HgN/A
10:20 PM55 °FPassing clouds.16 mph94%29.59 "HgN/A
9:50 PM55 °FPartly sunny.12 mph94%29.59 "HgN/A
9:20 PM55 °FRain showers. Broken clouds.12 mph94%29.56 "Hg4 mi
8:50 PM55 °FLots of rain. Broken clouds.14 mph94%29.56 "Hg4 mi
8:20 PM55 °FThunderstorms. Broken clouds.15 mph94%29.56 "Hg4 mi
7:50 PM55 °FThunderstorms. Partly sunny.14 mph94%29.53 "Hg6 mi
7:20 PM54 °FPartly sunny.14 mph100%29.53 "Hg6 mi
6:50 PM54 °FPartly sunny.14 mph100%29.50 "Hg6 mi
6:20 PM55 °FBroken clouds.16 mph94%29.50 "HgN/A
Weather by CustomWeather, © 2015

See weather overviewHow to use our weather pages